Regional Weather Roundup
Issued by NWS

Home | Current Version | Previous Version | Graphics & Text | Print | Product List | Glossary On
Versions: 1 2 3 4 5 6 7 8 9 10 11 12 13 14 15 16 17 18 19 20 21 22 23 24 25 26 27 28 29 30 31 32 33 34 35 36 37 38 39 40 41 42 43 44 45 46 47 48 49 50
173
ASUS43 KBIS 180602
RWRND

NORTH DAKOTA REGIONAL WEATHER ROUNDUP
NATIONAL WEATHER SERVICE BISMARCK ND
1200 AM CST MON DEC 18 2017

NOTE: "FAIR" INDICATES FEW OR NO CLOUDS BELOW 12,000 FEET WITH NO
SIGNIFICANT WEATHER AND/OR OBSTRUCTIONS TO VISIBILITY.


NDZ001>003-009>011-017-180700-
NORTHWEST NORTH DAKOTA

CITY           SKY/WX    TMP DP  RH WIND       PRES   REMARKS
WILLISTON      CLOUDY    33  24  69 SW9       29.65F
6HR MIN TEMP:  30; 6HR MAX TEMP:  36;

MINOT          CLOUDY    33  22  63 S9        29.62F
MINOT AFB      CLOUDY    31  22  68 W10       29.61F
$$

NDZ018>021-031>035-040>046-180700-
SOUTHWEST NORTH DAKOTA

CITY           SKY/WX    TMP DP  RH WIND       PRES   REMARKS
BISMARCK       CLOUDY    35  25  66 SW6       29.72F
6HR MIN TEMP:  29; 6HR MAX TEMP:  37;

DICKINSON      CLOUDY    34  19  54 W15       29.68F
GARRISON         N/A     30  22  72 W8        29.66F
6HR MIN TEMP:  30; 6HR MAX TEMP:  37;

HETTINGER ARPT CLOUDY    32  19  58 W15       29.75F
$$

NDZ004>008-012>016-024-026-027-054-180700-
NORTHEAST NORTH DAKOTA

CITY           SKY/WX    TMP DP  RH WIND       PRES   REMARKS
GRAND FORKS    CLOUDY    29  25  85 S18       29.70F WCI  16
GRND FRKS AFB  CLOUDY    31  24  76 SW15      29.68F WCI  20
DEVILS LAKE    CLOUDY    32  25  75 SW14      29.66S
$$

NDZ022-023-025-028>030-036>039-047>053-180700-
SOUTHEAST NORTH DAKOTA

CITY           SKY/WX    TMP DP  RH WIND       PRES   REMARKS
FARGO          CLOUDY    30  28  92 S13       29.78F WCI  20
6HR MIN TEMP:  29; 6HR MAX TEMP:  32;

JAMESTOWN      CLOUDY    35  28  75 SW10      29.71F
$$





USA.gov is the U.S. government's official web portal to all federal, state and local government web resources and services.